Flag for Germany Weather past 2 weeks in Darmstadt, Hesse, Germany

Now
39 °F

Light rain. Mostly cloudy.


Feels Like: 36 °F
Forecast: 30 / 44 °F
Wind: 5 mph from East

Location: Frankfurt-M-Flughafen Airport

Current Time: Feb 27, 2015 at 7:46:50 AM

Latest Report: Feb 27, 2015 at 7:20 AM


Visibility: N/A

Pressure: 29.80 "Hg

Humidity: 93%

Dew point: 37 °F

Location of DarmstadtLocation

Historic Weather in Darmstadt — Graph

°F

Darmstadt temperature yesterday

Maximum temperature yesterday: 48 °F (at 2:20 PM)
Minimum temperature yesterday: 37 °F (at 12:20 AM)
Average temperature yesterday: 42 °F

Past Weeks' High & Low Weather Summary

 TemperatureHumidityPressure
High52 °F (Feb 20, 1:50 PM)100% (Feb 22, 2:50 AM)30.74 "Hg (Feb 22, 2:50 AM)
Low25 °F (Feb 15, 4:50 AM)50% (Feb 20, 4:50 PM)29.45 "Hg (Feb 21, 7:20 AM)
Average37 °F81%30.03 "Hg
* Reported Feb 12 6:20 AM — Feb 27 6:20 AM, Darmstadt, Weather by CustomWeather, © 2015

Note: Actual official high and low records may vary slightly from our data, if they occured in-between our weather recording intervals... More about our weather records

Advertising

Darmstadt weather history for previous 24 hours

 ConditionsComfort  
Time TempWeatherWind HumidityBarometerVisibility
6:20 AM
Fri, Feb 27
39 °FLight rain. Overcast.1 mph87%29.80 "HgN/A
5:50 AM39 °FLight rain. Mostly cloudy.3 mph87%29.80 "HgN/A
5:20 AM37 °FLight rain. Mostly cloudy.5 mph93%29.80 "HgN/A
4:20 AM39 °FLight rain. Overcast.1 mph75%29.80 "HgN/A
3:50 AM39 °FLight rain. Mostly cloudy.2 mph75%29.80 "HgN/A
3:20 AM39 °FOvercast.No wind75%29.80 "HgN/A
2:50 AM39 °FOvercast.No wind75%29.80 "HgN/A
2:20 AM39 °FOvercast.No wind75%29.83 "HgN/A
1:50 AM39 °FClear.No wind70%29.83 "Hg10 mi
1:20 AM39 °FClear.No wind75%29.86 "Hg10 mi
12:50 AM41 °FClear.2 mph70%29.86 "Hg10 mi
12:20 AM41 °FClear.2 mph66%29.86 "Hg10 mi
11:50 PM
Thu, Feb 26
41 °FClear.5 mph66%29.86 "Hg10 mi
11:20 PM41 °FClear.3 mph66%29.89 "Hg10 mi
10:50 PM43 °FClear.5 mph61%29.89 "Hg10 mi
10:20 PM43 °FClear.5 mph61%29.89 "Hg10 mi
9:50 PM45 °FClear.6 mph61%29.92 "Hg10 mi
9:20 PM43 °FClear.7 mph66%29.92 "Hg10 mi
8:50 PM43 °FClear.7 mph71%29.92 "Hg10 mi
8:20 PM43 °FClear.6 mph71%29.95 "Hg10 mi
7:50 PM41 °FClear.3 mph76%29.95 "Hg10 mi
7:20 PM43 °FClear.1 mph71%29.98 "Hg10 mi
6:50 PM43 °FClear.2 mph76%29.98 "Hg10 mi
6:20 PM45 °FClear.2 mph71%29.98 "Hg10 mi
5:50 PM46 °FScattered clouds.2 mph66%29.98 "HgN/A
5:20 PM46 °FScattered clouds.3 mph62%29.98 "HgN/A
4:50 PM48 °FScattered clouds.2 mph58%30.01 "HgN/A
4:20 PM48 °FScattered clouds.5 mph58%30.01 "HgN/A
3:50 PM48 °FScattered clouds.8 mph58%30.04 "HgN/A
3:20 PM48 °FScattered clouds.8 mph58%30.04 "HgN/A
2:50 PM48 °FScattered clouds.9 mph58%30.04 "HgN/A
2:20 PM48 °FPartly sunny.8 mph58%30.07 "HgN/A
1:50 PM46 °FPartly sunny.8 mph66%30.07 "HgN/A
1:20 PM46 °FBroken clouds.7 mph66%30.09 "HgN/A
12:50 PM46 °FBroken clouds.8 mph71%30.09 "HgN/A
12:20 PM46 °FBroken clouds.10 mph71%30.12 "HgN/A
11:50 AM45 °FBroken clouds.8 mph71%30.12 "HgN/A
11:20 AM43 °FPartly sunny.7 mph76%30.12 "HgN/A
10:50 AM41 °FPartly sunny.8 mph81%30.12 "HgN/A
10:20 AM41 °FPartly sunny.8 mph76%30.15 "HgN/A
9:50 AM39 °FPartly sunny.3 mph81%30.15 "HgN/A
9:20 AM39 °FPartly sunny.5 mph81%30.15 "HgN/A
8:50 AM39 °FPartly sunny.2 mph81%30.15 "HgN/A
8:20 AM37 °FOvercast.No wind87%30.15 "HgN/A
7:50 AM37 °FPartly sunny.2 mph93%30.15 "HgN/A
Weather by CustomWeather, © 2015

See weather overviewHow to use our weather pages